www.pogodaiklimat.ru

Погода и климат >> Архив погоды >> Литва >> Клайпеда


АРХИВ ПОГОДЫ в Kлайпеде

Время (UTC), дата Ветер
(напр.,м/с)
 
Видим.   Явления Облачность Т
(С)
Тd
(С)
f
(%)
Тe
(С)
Тes
(С)
Комфортность P
(гПа)
Po
(гПа)
Тmin
(С)
Tmax
(С)
R
(мм)
R24
(мм)
S
(см)
03 10.07 С 2-4
{6}
20 км 10/10 1500 м
[Cu Sc]
+13.1 +11.7 91 +12 +12 холодно 1007.8 1006.9
06 10.07 С 4-6
{8}
6000 м слаб. дождь 10/10 200 м
[Frnb Ns]
+13.2 +12.3 94 +11 +11 очень
холодно
1008.0 1007.1 +12.9 1
09 10.07 С 3-6
{8}
19 км слаб. дождь 10/10 300 м
[Frnb Ns]
+13.6 +12.7 94 +12 +12 очень
холодно
1008.4 1007.5
12 10.07 С 4-9
{9}
20 км в посл. час дождь 10/10 500 м
[Cu Sc]
+15.5 +12.2 81 +15 +15 холодно 1008.4 1007.5
15 10.07 С 5-10
{10}
20 км {ливн. осадки} 9/9 1230 м
[Cu Sc]
+15.7 +11.7 77 +15 +15 холодно 1008.9 1008.0
18 10.07 С 3-7
{9}
20 км {ливн. осадки} 8/4 600 м
[Sc Ac trans]
+15.0 +11.6 80 +14 +14 холодно 1009.4 1008.5 +16.7 9
21 10.07 С 2-4
{8}
20 км ясно +13.2 +11.5 89 +12 +12 холодно 1010.0 1009.1
00 11.07 СВ 2-3
{5}
20 км ясно +11.9 +10.5 91 +11 +11 холодно 1010.1 1009.2
03 11.07 СВ 1-2
{3}
20 км 4/0
[Ci sp]
+10.7 +10.4 98 +10 +10 холодно 1009.9 1009.0
06 11.07 СЗ 2-5
{5}
20 км 8/4 1000 м
[Cu med, cong Ac trans]
+15.4 +12.2 81 +15 +17 прохладно 1010.0 1009.1 +10.4
09 11.07 СЗ 3-6
{6}
20 км 3/0
[Ci fib]
+17.9 +10.5 62 +18 +29 по сезону 1010.2 1009.3
12 11.07 З 3-6
{6}
20 км 8/0
[Ci]
+19.0 +10.2 57 +20 +30 по сезону 1009.8 1008.9
15 11.07 З 4-7
{7}
20 км 6/1 1000 м
[Cu med, cong Ac trans Cc]
+18.1 +13.4 74 +18 +21 прохладно 1009.5 1008.6
18 11.07 СЗ 3-6
{7}
20 км 8/4 300 м
[Cu med, cong Ac trans Cc]
+16.6 +14.0 85 +16 +16 прохладно 1008.7 1007.8 +19.4
21 11.07 С 2-4
{7}
20 км 10/10 570 м
[Cu Sc]
+14.1 +11.1 82 +14 +14 прохладно 1009.4 1008.5
00 12.07 С 2-3
{5}
20 км ясно +11.7 +9.4 86 +11 +11 холодно 1009.5 1008.6
03 12.07 С 1-3
{4}
20 км 6/6 800 м
[Cu med, cong]
+12.1 +10.2 88 +12 +12 холодно 1009.8 1008.9
06 12.07 В 2-4
{4}
20 км 3/0
[Ci fib]
+16.5 +12.3 76 +17 +21 по сезону 1010.0 1009.1 +11.1
09 12.07 СЗ 3-6
{6}
20 км 8/3 1000 м
[Cu med, cong Ci fib]
+17.5 +12.8 74 +18 +24 по сезону 1010.7 1009.8
12 12.07 СЗ 4-6
{6}
20 км 5/3 1000 м
[Cu med, cong Ci fib]
+18.2 +12.3 68 +18 +24 прохладно 1010.7 1009.8
15 12.07 С 3-6
{7}
20 км 3/3 1000 м
[Cu med, cong Ci fib]
+18.5 +12.7 69 +19 +23 по сезону 1010.4 1009.5
18 12.07 С 3-5
{6}
20 км 3/0
[Ci fib]
+16.9 +12.1 73 +17 +17 прохладно 1010.4 1009.5 +19.1
21 12.07 СВ 1-2
{4}
20 км 4/0
[Ac As Ci fib]
+13.5 +10.7 83 +14 +14 прохладно 1010.6 1009.7
00 13.07 В 2-3
{3}
20 км 10/0
[Ac und]
+13.3 +11.2 87 +13 +13 прохладно 1010.6 1009.7
03 13.07 СВ 2-4
{4}
20 км 6/3 1080 м
[Cu med, cong Ac trans]
+12.6 +11.3 92 +12 +12 холодно 1010.4 1009.5
06 13.07 В 2-3
{5}
20 км 8/8 600 м
[Sc]
+15.3 +9.4 68 +15 +16 прохладно 1010.7 1009.8 +11.8
09 13.07 СЗ 3-6
{6}
20 км 3/0
[Ci fib]
+17.5 +11.1 66 +18 +28 по сезону 1011.2 1010.3
12 13.07 СЗ 3-6
{8}
20 км ясно +18.5 +11.1 62 +19 +31 опасность
простуды
1011.2 1010.3
15 13.07 С 3-7
{9}
20 км ясно +18.0 +10.6 62 +18 +23 прохладно 1010.9 1010.0
18 13.07 С 4-7
{11}
20 км 8/4 600 м
[Sc Ci]
+15.9 +11.7 76 +15 +15 холодно 1011.3 1010.4 +18.9
21 13.07 С 2-5
{6}
20 км 8/8 600 м
[Sc]
+14.4 +9.4 72 +14 +14 прохладно 1012.2 1011.3
00 14.07 СВ 2-3
{5}
20 км ясно +12.0 +10.2 89 +11 +11 холодно 1012.5 1011.6
03 14.07 СВ 2-3
{4}
20 км ясно +10.4 +9.0 91 +9 +9 очень
холодно
1012.5 1011.6
06 14.07 С 2-4
{4}
20 км 3/0
[Ci sp]
+15.7 +9.4 66 +16 +21 прохладно 1012.9 1012.0 +10.0
09 14.07 СЗ 4-6
{7}
20 км 8/0
[Ci sp]
+17.7 +10.6 63 +17 +25 прохладно 1013.2 1012.3
12 14.07 СЗ 5-8
{9}
20 км ясно +18.4 +10.1 58 +18 +26 прохладно 1013.4 1012.5
15 14.07 СЗ 4-7
{9}
20 км ясно +18.5 +9.5 56 +19 +23 по сезону 1013.5 1012.6
18 14.07 С 3-6
{8}
20 км 3/0
[Ci sp]
+16.6 +13.2 80 +16 +17 прохладно 1013.5 1012.6 +19.3
21 14.07 С 1-2
{5}
20 км ясно +13.3 +11.4 88 +13 +13 холодно 1013.9 1013.0
00 15.07 С 1-2
{3}
20 км ясно +11.8 +11.3 97 +12 +12 прохладно 1013.8 1012.9
03 15.07 СВ 1-3
{3}
20 км 3/0
[Ci fib]
+12.0 +11.4 96 +12 +12 холодно 1013.6 1012.7
06 15.07 С 1-3
{3}
20 км 8/0
[Ci sp]
+17.4 +12.8 74 +18 +24 по сезону 1013.5 1012.6 +11.6
09 15.07 ЮЗ 2-3
{4}
20 км 8/0
[Ac trans Ci fib]
+18.5 +14.1 76 +20 +28 по сезону 1013.7 1012.8
12 15.07 З 3-6
{6}
20 км 3/0
[Ci sp]
+19.7 +12.4 63 +22 +32 комфорт 1013.5 1012.6
15 15.07 З 2-4
{6}
20 км 8/0
[Ac trans Ci sp]
+19.8 +10.7 56 +22 +25 комфорт 1012.8 1011.9
18 15.07 З 1-2
{4}
20 км 10/0
[Ac und]
+17.5 +14.3 81 +19 +19 по сезону 1011.6 1010.7 +20.3
21 15.07 З 2-4
{5}
20 км 10/0
[Ac und]
+16.8 +13.9 83 +17 +17 по сезону 1011.3 1010.4
00 16.07 З 3-6
{6}
20 км 10/10 540 м
[Cu Sc]
+16.7 +13.0 79 +16 +16 по сезону 1009.9 1009.0
03 16.07 ЮЗ 5-9
{9}
20 км слаб. ливневой дождь 10/10 930 м
[Cb cap]
+16.2 +10.9 71 +15 +15 прохладно 1008.2 1007.3
06 16.07 З 4-9
{10}
20 км {ливн. осадки} 9/8 700 м
[Cb calv Ac und]
+16.5 +11.5 72 +16 +16 прохладно 1006.8 1005.9 +16.1 0.0
09 16.07 С 2-5
{9}
20 км в посл. час ливневой дождь 9/1 600 м
[Cu med, cong As trans Ci sp]
+14.6 +11.7 83 +14 +21 холодно 1007.0 1006.1
12 16.07 СЗ 4-7
{9}
20 км {ливн. осадки} ясно +17.2 +9.9 62 +17 +26 холодно 1007.3 1006.4
15 16.07 СЗ 3-7
{8}
20 км 3/3 750 м
[Cu med, cong]
+17.6 +10.7 64 +18 +21 прохладно 1008.0 1007.1
18 16.07 З 2-5
{8}
20 км 10/4 1000 м
[Cu med, cong Ac As]
+16.0 +10.9 72 +16 +16 прохладно 1007.8 1006.9 +18.0 0.8
21 16.07 ЮВ 1-1
{8}
20 км в посл. час ливневой дождь 10/10 900 м
[Cu Sc]
+12.9 +12.3 96 +13 +13 холодно 1007.6 1006.7

 

Местоположение метеостанции Клайпеда (Литва): широта 55.73 долгота 21.07 высота над уровнем моря 7 м.

В архиве по умолчанию представлена погода в Kлайпеде за последнюю неделю. Архивные данные за месяц целиком и за предыдущие месяцы, начиная с января 2011 года, Вы можете получить, выбрав интересующий диапазон дат из раскрывающегося списка и нажав кнопку "Ввод!".


*Определитесь, кто Вы:
робот инопланетянин человек

Внимание! Время в таблицах - всемирное. Для получения местного времени необходимо прибавить поправку, которая равна 2 ч.

Смотрите также архив погоды в соседних городах и на ближайших метеорологических станциях:

Погода в Ниде (Литва) (46 км)
Погода в Шилуте (Литва) (49 км)
Погода в Рыбачем (Калининградская область, Россия) (65 км)
Погода в Лаукуве (Литва) (74 км)
Погода в Тельшяе (Литва) (78 км)
Погода в Лиепае (Латвия) (83 км)
Погода в Советске (Калининградская область, Россия) (90 км)
Погода в Пионерском (Калининградская область, Россия) (102 км)
Погода в Мажейкяе (Литва) (104 км)
Погода в Калининграде (Калининградская область, Россия) (118 км)

Пояснения к столбцам:

Ветер - указаны скорость ветра в м/с - средняя за 10 мин, порывы в срок и между сроками (в фигурных скобках) и направление, откуда дует ветер: С - северный, СВ - северо-восточный, В - восточный, ЮВ - юго-восточный, Ю - южный, ЮЗ - юго-западный, З - западный, СЗ - северо-западный.
Видимость - горизонтальная дальность видимости в метрах или километрах. При видимости от 1 до 10 км при отсутствии осадков обычно наблюдается дымка, при ухудшении видимости до 1 км и менее - туман. В сухую погоду видимость может ухудшаться дымом, пылью или мглою.
Явления - указаны атмосферные явления, наблюдавшиеся в срок или в последний час перед сроком; фигурными скобками обозначены явления, наблюдавшиеся между сроками (за 1-3 часа до срока); квадратными скобками обозначены град или гололедные отложения с указанием их диаметра в мм.
Облачность - указаны через наклонную черту общая и нижняя облачность в баллах и высота нижней границы облаков в метрах; квадратными скобками обозначены формы облаков: Ci - перистые, Cs - перисто-слоистые, Cc - перисто-кучевые, Ac - высококучевые, As - высокослоистые, Sc - слоисто-кучевые, Ns - слоисто-дождевые, Cu - кучевые, Cb - кучево-дождевые. Подробнее классификацию облаков см. в Атласе облаков (PDF).
T - Температура воздуха - температура, измеренная на высоте 2 м над землей.
Td - Температура точки росы - температура, при понижении до которой содержащийся в воздухе водяной пар достигнет насыщения.
f - Относительная влажность воздуха - влажноcть воздуха, измеренная на высоте 2 м над землей.
Te - Эффективная температура - температура, которую ощущает одетый по сезону человек в тени. Характеристика душности погоды. При расчете учитывается влияние влажности воздуха и скорости ветра на теплоощущения человека.
Tes - Эффективная температура на солнце - температура, которую ощущает человек, с поправкой на солнечный нагрев. Характеристика знойности погоды. Зависит от высоты солнца над горизонтом, облачности и скорости ветра. Ночью, в пасмурную погоду, а также при ветре 12 м/с и более поправка равна нулю.
P - Атмосферное давление - приведенное к уровню моря атмосферное давление.
Po - Атмосферное давление - измеренное на уровне метеостанции атмосферное давление.
Tmin - Минимальная температура - минимум температуры воздуха на высоте 2 м над землей.
Tmax - Максимальная температура - максимум температуры воздуха на высоте 2 м над землей.
R - Количество осадков - Количество выпавших осадков за период времени, мм. При наведении курсора мыши на число - период времени, за который выпало указанное количество осадков.
R24 - Количество осадков - Количество выпавших осадков за 24 часа, мм.
S - Снежный покров - Высота снежного покрова, см. При наведении курсора мыши на число - состояние снежного покрова и степень покрытия местности в баллах.